Simultaneous Nadir Overpasses (SNOs) Predictions

Prediction of SNOs between FY3D and NOAA-19 Satellite Orbit:

Table of predicted SNOs for the next 14.0 days since TLE Epoch: 2/26/2022
Index Date (FY3D) Time (FY3D) Lat,Lon (FY3D) SZA (FY3D ) Date (NOAA-19) Time (NOAA-19) Lat,Lon (NOAA-19) SZA (NOAA-19 ) Distance(km) Time Diff (sec)
1 03/03/2022 11:22:51 77.71, -9.28 85.23 03/03/2022 11:21:37 77.74, -9.72 85.31 10.85 74
2 03/03/2022 12:13:37 -77.77, 157.75 94.72 03/03/2022 12:12:34 -77.79, 157.79 94.68 2.35 63
3 03/03/2022 13:04:24 77.77, -34.98 85.28 03/03/2022 13:03:36 77.78, -34.99 85.31 0.88 48
4 03/03/2022 13:55:09 -77.79, 132.26 94.72 03/03/2022 13:54:34 -77.79, 132.31 94.71 1.20 35
5 03/03/2022 14:45:56 77.80, -60.47 85.29 03/03/2022 14:45:36 77.78, -60.48 85.28 1.40 20
6 03/03/2022 15:36:41 -77.81, 106.77 94.71 03/03/2022 15:36:34 -77.79, 106.83 94.73 2.51 7
7 03/03/2022 16:27:28 77.82, -85.96 85.29 03/03/2022 16:27:36 77.79, -85.96 85.26 3.56 8
8 03/03/2022 17:18:12 -77.79, 81.48 94.77 03/03/2022 17:18:34 -77.80, 81.35 94.76 3.06 22
9 03/03/2022 18:08:59 77.80,-111.25 85.24 03/03/2022 18:09:35 77.83,-111.23 85.25 3.15 36
10 03/03/2022 18:59:44 -77.81, 55.99 94.76 03/03/2022 19:00:34 -77.80, 55.87 94.78 3.22 50
11 03/03/2022 19:50:31 77.82,-136.74 85.24 03/03/2022 19:51:35 77.83,-136.71 85.22 1.15 64
12 03/03/2022 20:41:19 -77.96, 29.88 94.60 03/03/2022 20:42:31 -77.92, 31.03 94.75 27.23 72



Historial Predications of SNOs between FY3D and NOAA-19
